RH
9 8 8 7 7 6 6 5 4 4 4 5 5 6 7 7 7 6 6 5 5 4 4 4 4 4 4 4 4 4 6 6 7 8 8 8 8 8 10 8 8 9 9 14 17 19 18 18 20 24 33 40 48 57 60 66 68 68 75 77 79 81 81 81 79 80 82 84 87 87 85 86 89 90 90 88 86 83 79 76 76 76 72 71 71 67 64 62
10 10 10 9 8 7 6 6 6 5 5 5 5 6 6 7 7 6 6 6 6 5 4 4 4 4 4 4 4 4 4 6 9 10 8 8 8 9 11 9 8 9 8 10 13 16 17 17 20 28 35 39 46 54 57 62 67 70 76 78 81 81 79 77 78 81 81 84 86 87 87 86 89 89 88 89 88 86 82 77 76 76 73 72 70 66 66 64
11 10 10 10 10 9 8 7 7 6 5 6 6 5 6 6 6 6 6 6 5 5 5 4 4 4 4 4 4 4 3 8 12 12 10 9 8 9 11 11 9 10 8 8 10 13 16 16 20 29 35 37 42 49 52 58 68 71 73 78 80 78 78 76 77 80 81 83 84 85 86 85 88 87 87 88 88 88 83 79 76 75 73 71 69 65 66 64
12 11 11 11 10 10 10 9 8 7 6 6 6 7 6 6 6 6 6 6 5 5 5 5 4 4 4 3 4 4 4 11 13 10 11 9 8 10 12 13 10 10 9 8 9 12 15 15 20 29 31 33 38 44 48 54 65 70 71 75 75 73 75 74 74 77 79 80 82 84 84 85 87 87 87 86 86 87 83 78 75 74 73 70 68 65 64 64
13 12 12 11 11 11 10 10 10 9 8 7 7 8 8 7 7 6 6 5 5 5 5 5 4 4 4 4 4 3 5 13 13 8 10 10 8 10 13 14 11 10 9 8 9 10 12 15 21 28 28 30 35 40 46 52 60 67 69 70 70 68 70 73 73 75 77 80 81 81 81 84 86 86 86 84 85 86 82 78 75 73 72 71 69 65 64 64
13 13 12 12 12 11 11 10 10 9 9 8 8 8 8 8 8 7 6 5 5 5 5 5 4 4 4 4 4 3 5 12 14 11 10 10 9 10 13 16 13 10 8 8 8 8 11 16 23 27 26 29 35 40 47 54 59 65 66 64 66 66 66 70 73 74 76 81 83 80 79 81 84 87 87 83 84 84 80 78 77 74 74 74 70 65 64 64
14 14 13 12 12 11 11 11 10 9 9 9 9 10 10 9 9 8 6 5 5 6 6 5 5 4 4 4 4 4 6 10 14 15 13 12 10 10 13 17 15 12 9 8 7 8 11 15 21 24 26 30 35 42 49 57 60 62 62 59 61 63 63 66 71 74 74 78 83 81 80 80 83 88 87 84 85 84 80 79 78 76 75 75 71 67 65 65
14 14 13 13 12 12 11 11 11 10 9 9 9 10 11 11 10 9 8 6 5 6 6 6 6 5 5 4 4 6 7 9 13 15 16 15 13 10 12 17 17 14 10 8 7 8 10 13 18 22 25 29 35 44 52 59 60 59 57 55 56 57 58 62 68 75 74 76 81 81 81 80 83 85 84 85 85 82 79 78 78 77 75 73 69 67 67 67
12 13 12 12 12 11 11 11 11 10 9 9 9 10 12 12 11 10 9 8 6 6 7 8 7 7 6 5 6 9 8 9 13 14 15 16 15 11 11 15 18 16 12 9 7 8 11 12 16 20 24 28 34 45 52 56 56 54 52 51 52 52 54 59 66 74 74 74 78 80 82 81 80 82 85 87 85 82 79 78 77 76 74 71 66 66 67 67
10 10 11 11 11 11 11 11 11 10 9 9 9 10 12 12 12 11 10 9 8 8 9 9 9 8 8 6 8 11 10 10 12 12 13 15 16 14 11 13 17 18 14 11 9 8 10 12 15 19 24 30 36 43 49 52 51 49 48 47 46 48 52 57 63 72 74 73 74 79 84 83 79 81 86 86 83 82 79 77 77 76 73 68 64 65 66 68
9 9 9 10 10 10 10 11 11 10 9 8 9 10 12 12 12 12 11 10 9 9 10 10 10 9 9 8 9 12 11 11 12 12 12 13 15 15 13 13 15 18 16 14 10 8 10 14 18 22 26 34 38 39 44 47 44 43 44 43 42 46 54 58 62 71 74 73 73 77 84 83 80 82 84 82 79 80 79 77 76 76 73 67 64 64 65 68
8 8 9 9 9 10 10 11 11 10 9 8 9 11 13 13 12 12 11 11 10 11 11 11 10 10 10 9 9 11 12 13 13 13 13 12 13 14 14 13 14 17 17 15 11 8 10 14 18 24 29 34 37 38 40 40 39 41 39 38 42 49 56 59 63 71 73 73 72 73 80 82 80 80 80 78 78 79 79 77 74 73 72 67 65 65 64 66
8 8 8 9 9 9 10 10 10 10 9 9 10 11 13 13 13 13 12 12 11 11 11 12 13 12 13 12 8 10 13 12 12 14 13 12 13 13 15 15 14 15 17 17 12 8 11 15 19 24 29 31 34 36 37 38 39 39 34 33 41 51 55 57 64 71 72 72 70 68 73 77 76 76 77 77 78 79 79 78 75 73 72 68 67 66 64 65
7 8 9 10 10 10 10 10 10 9 9 10 11 12 13 13 13 13 13 13 12 12 12 14 15 15 15 14 11 12 12 10 11 11 11 11 11 12 14 15 16 16 18 17 13 12 17 22 24 26 27 28 31 32 33 36 37 36 33 29 36 49 54 54 61 68 69 70 69 66 68 73 73 72 72 74 77 78 78 78 76 73 71 71 70 68 66 64
8 9 10 11 11 11 11 10 9 9 11 12 13 13 13 12 12 13 15 14 13 12 12 15 17 16 16 15 13 14 13 11 10 9 9 10 11 12 12 14 16 17 19 16 14 21 27 29 28 27 27 27 29 29 31 34 34 35 35 30 31 39 45 50 56 60 62 65 66 64 64 66 67 67 68 70 73 75 77 77 76 73 70 71 72 69 67 65
8 9 10 11 11 11 11 10 11 11 12 13 13 14 14 13 14 15 16 15 14 13 13 15 15 14 18 18 16 15 13 12 10 9 10 9 10 11 11 13 16 19 20 16 18 30 33 30 28 27 27 27 28 30 31 32 33 34 33 32 30 28 37 49 52 51 56 63 63 59 61 62 63 64 65 67 68 71 74 76 77 75 71 70 71 70 68 66
7 8 9 10 11 11 11 11 12 13 13 13 13 14 15 15 15 17 17 17 17 16 15 16 16 17 19 19 18 17 14 13 11 10 10 9 9 11 11 14 17 20 20 16 20 32 34 31 29 28 28 29 28 29 31 31 32 32 31 31 30 28 37 48 49 48 52 60 60 58 58 58 58 60 62 64 66 68 72 74 76 76 74 70 70 71 69 66
8 8 9 9 10 11 10 10 12 14 14 13 14 14 16 17 18 19 18 18 18 19 20 20 20 22 21 20 20 18 14 13 12 11 11 9 10 11 11 15 19 21 21 17 22 30 33 31 30 30 29 28 27 26 30 30 28 31 30 30 30 29 35 43 47 48 47 52 57 59 58 54 54 57 59 63 65 67 69 72 74 75 75 72 70 70 69 67
9 9 10 10 10 10 10 10 12 14 14 14 15 16 17 18 20 20 18 18 18 20 24 22 22 23 21 20 19 16 14 13 13 12 12 10 10 12 12 16 20 22 19 18 22 29 31 32 32 31 30 28 27 26 28 27 25 28 28 28 29 28 29 33 39 41 40 44 47 50 53 51 52 55 57 61 63 65 68 69 70 72 74 74 71 69 68 67
10 10 10 11 10 11 10 10 12 14 15 15 16 19 20 20 22 21 19 18 18 18 20 18 18 22 20 18 17 15 14 13 13 14 13 12 12 14 15 16 21 22 19 18 23 27 29 33 33 30 29 28 27 27 26 26 24 24 24 25 26 27 28 27 30 36 38 40 41 41 44 45 50 54 56 59 62 63 65 65 66 68 72 73 70 68 67 66
11 11 11 11 11 12 11 11 12 15 17 17 18 21 23 23 23 23 21 20 18 17 18 17 17 20 19 17 17 16 15 14 12 13 13 13 14 15 16 18 22 23 20 18 21 26 28 32 30 26 28 28 27 27 27 27 25 23 22 22 23 24 26 26 27 32 36 39 40 40 42 43 47 53 56 59 61 62 63 63 63 65 69 71 70 70 69 67
11 11 12 12 12 12 11 11 13 17 19 19 21 24 26 25 24 23 21 21 20 16 18 20 18 20 18 17 17 16 17 15 12 13 13 14 16 17 18 21 24 23 20 20 21 26 29 28 24 25 28 27 26 26 26 27 27 24 21 21 22 20 21 24 24 26 31 37 39 40 45 49 49 53 58 59 60 62 63 63 63 63 65 67 68 69 70 69
14 13 13 13 12 12 12 12 12 17 22 21 22 25 26 26 24 23 21 21 21 17 17 18 16 17 18 16 16 15 16 15 13 14 13 14 16 17 21 24 26 23 21 22 24 28 30 25 22 25 27 26 26 25 24 26 26 24 22 21 21 20 20 23 22 23 28 34 38 39 45 51 52 54 58 60 61 64 66 65 64 63 63 64 65 67 69 68
17 17 16 15 14 14 13 12 12 16 22 22 23 25 26 27 25 24 22 20 21 18 16 16 15 15 16 15 13 11 12 14 13 15 14 14 14 15 20 24 27 25 23 24 26 29 29 24 23 25 26 26 26 25 23 25 25 23 20 19 21 21 22 23 23 23 25 29 34 40 48 53 51 52 59 61 62 65 67 65 64 63 63 64 66 68 70 68
18 20 19 18 18 17 15 13 13 16 20 23 24 25 24 23 22 22 21 22 22 19 16 15 15 15 14 13 13 11 10 12 13 15 15 15 15 17 20 22 25 25 24 25 27 29 27 22 22 24 24 24 25 25 24 24 24 22 18 17 19 22 23 22 23 22 21 25 29 38 53 56 49 52 58 60 61 65 66 64 62 62 63 65 66 69 70 68
18 20 20 20 20 20 17 16 16 16 19 23 25 26 22 19 18 18 21 24 22 19 16 15 15 16 15 14 13 12 12 12 14 16 16 16 17 20 21 22 23 25 24 25 27 26 23 22 22 23 24 24 24 23 23 23 26 24 18 15 18 23 24 23 23 22 21 23 26 33 49 59 56 53 55 58 60 64 66 63 61 60 61 62 63 67 69 67
19 20 20 20 22 22 20 19 18 17 19 22 25 25 21 18 17 17 23 29 26 20 16 16 18 17 16 15 13 13 14 14 15 18 17 16 17 20 23 23 22 23 21 23 28 25 20 22 25 25 24 25 25 23 21 22 25 24 18 15 18 22 26 24 22 23 23 25 27 29 43 62 64 54 53 58 61 64 64 61 57 56 58 61 61 64 67 67
20 20 20 21 23 24 24 22 20 19 19 20 22 23 20 20 18 19 28 33 29 25 19 17 20 18 17 15 11 13 15 14 17 19 16 15 18 19 23 24 23 23 18 20 27 24 20 23 26 26 26 24 24 23 21 21 22 20 17 16 17 21 27 26 23 25 25 30 35 31 37 56 60 55 55 58 61 63 61 56 51 52 55 59 60 60 64 66
21 22 22 23 25 26 26 25 23 23 22 21 22 22 21 20 18 24 32 33 29 28 23 21 22 21 18 15 13 14 14 14 17 18 16 16 17 16 18 21 24 24 19 18 23 23 21 21 23 24 25 24 23 22 22 21 20 18 19 19 17 21 29 29 27 27 27 35 41 35 35 42 46 51 55 55 57 58 54 50 48 49 53 57 60 60 61 63
23 24 25 25 26 27 27 27 26 25 23 22 22 22 21 20 25 35 36 32 31 29 27 25 23 22 20 18 17 16 15 16 17 18 17 17 17 16 15 15 20 23 21 20 22 23 21 19 19 22 23 23 22 22 22 20 18 17 20 21 20 23 31 35 36 33 29 35 36 32 33 33 33 42 46 44 47 47 46 46 45 48 51 54 58 60 60 61
25 26 26 26 27 28 29 29 28 27 25 24 24 22 21 25 36 43 36 30 33 33 32 29 25 24 23 21 21 19 17 17 18 18 18 18 17 16 15 14 17 24 26 23 22 24 23 20 21 23 23 22 21 22 22 20 19 18 20 22 22 26 30 34 38 32 28 32 30 27 32 29 27 35 38 37 39 38 38 40 42 45 49 52 55 58 60 61
26 27 26 28 29 30 31 31 30 28 27 26 23 23 29 36 39 40 34 32 35 36 35 33 28 26 24 24 24 22 21 20 19 19 18 18 18 17 17 17 16 21 26 24 21 25 25 22 24 23 22 21 21 22 22 21 20 19 21 23 24 27 28 30 36 32 28 29 25 25 28 24 22 25 29 34 36 34 32 34 38 41 45 49 52 54 57 60
29 28 28 29 30 31 31 31 29 29 29 28 26 31 41 43 37 34 32 32 35 35 35 34 31 28 27 27 26 24 24 23 22 21 20 20 21 21 20 18 15 17 21 21 21 25 26 23 24 23 22 21 21 22 22 23 21 20 22 23 23 27 27 31 37 33 27 25 23 25 26 24 21 18 19 25 29 30 30 33 38 41 43 47 50 52 54 58
30 29 30 30 29 31 32 32 32 32 31 29 31 37 40 38 35 33 31 30 32 34 35 34 32 30 29 28 26 24 25 25 24 23 23 23 23 24 24 20 18 18 20 21 21 24 27 26 25 23 21 21 21 22 22 22 22 21 21 21 23 26 27 30 33 29 25 24 25 25 26 26 23 19 18 19 22 26 28 32 36 38 42 45 48 51 52 55
30 29 31 31 32 34 36 38 36 33 31 29 33 37 35 34 35 33 31 30 32 34 34 33 31 31 30 29 28 26 24 25 25 24 24 24 25 26 25 23 22 21 22 22 20 22 26 27 26 23 20 21 22 22 21 22 23 23 22 20 21 24 25 26 28 28 26 24 26 26 27 29 26 22 22 19 20 24 26 30 33 33 34 38 43 45 47 51
31 33 34 34 35 37 38 39 36 33 31 31 36 36 34 34 34 32 31 29 31 34 35 34 33 32 32 31 30 28 25 25 25 25 26 26 27 27 27 25 24 23 25 24 21 21 23 25 26 25 21 20 21 22 21 22 24 24 23 21 20 21 22 23 24 28 26 23 26 27 24 27 26 24 26 25 24 24 25 29 31 31 29 30 34 36 38 44
33 35 35 34 36 37 38 39 38 35 33 35 39 37 33 34 33 32 32 30 30 33 35 37 37 36 35 34 31 29 27 25 26 27 28 28 28 28 28 27 26 26 26 25 23 22 22 24 25 25 24 22 21 22 23 22 23 24 23 22 21 20 22 23 24 28 29 26 27 25 23 29 32 29 29 30 29 25 24 26 26 27 28 27 28 29 30 36
35 35 34 33 35 37 39 41 40 37 35 40 45 41 37 38 36 33 33 32 32 33 35 38 39 37 37 36 33 31 29 28 28 28 28 29 29 29 29 29 27 27 27 26 26 25 23 24 25 24 25 26 23 23 26 25 23 24 23 24 24 23 24 25 24 25 28 30 29 24 22 32 40 38 34 35 36 30 27 27 24 23 25 25 25 26 28 32
35 34 33 33 35 35 37 42 44 43 40 44 50 48 43 41 38 36 36 37 36 36 38 38 37 38 36 34 33 31 29 29 30 29 30 31 30 29 29 28 28 28 26 26 27 28 26 24 25 26 27 28 27 26 31 31 27 26 27 26 27 27 26 25 25 25 27 32 31 25 25 35 43 43 41 42 41 35 30 29 27 24 22 23 23 24 26 28
36 35 34 34 35 36 38 40 42 45 47 49 51 51 48 45 40 38 38 40 41 42 43 42 39 40 38 34 33 32 31 31 31 31 32 33 31 30 28 27 27 27 26 26 25 27 28 27 28 28 27 30 33 32 32 32 31 31 32 30 30 31 28 25 25 24 26 33 35 31 33 38 41 43 42 43 44 40 33 31 30 26 22 20 21 23 24 25
34 37 35 34 35 36 36 36 37 40 44 46 45 44 43 40 37 36 36 36 40 43 46 46 43 41 40 37 35 33 33 34 34 34 34 34 33 32 30 28 28 26 26 27 26 27 29 30 30 32 30 31 37 37 31 31 34 35 36 34 33 33 32 32 33 30 28 30 32 32 35 38 39 41 39 39 43 42 35 31 32 31 27 23 21 22 23 24
30 35 35 34 35 34 34 36 37 36 36 36 35 35 35 33 31 32 31 31 33 38 42 45 43 40 38 37 34 33 33 35 36 35 36 35 34 33 31 30 29 27 27 28 27 25 28 29 30 35 36 32 35 37 34 33 34 35 37 36 35 34 34 36 38 36 32 30 31 34 35 37 39 37 34 37 42 43 40 37 34 32 32 30 24 21 23 24
29 31 33 33 34 34 34 36 36 33 31 30 28 28 29 28 28 29 29 28 29 31 34 38 39 39 37 34 33 32 33 36 36 36 36 35 33 31 30 30 28 27 29 31 29 26 28 28 27 33 39 37 35 38 38 34 33 34 37 36 36 36 35 34 36 36 36 35 37 38 34 34 36 34 35 40 43 45 47 44 37 33 35 35 28 22 22 25
33 31 30 31 33 33 35 38 38 36 33 30 28 27 25 24 25 26 27 27 27 28 28 30 31 32 33 31 31 31 32 35 38 37 35 35 33 29 28 28 27 27 28 30 30 27 27 30 29 31 40 42 41 43 41 35 32 34 35 34 36 38 36 36 37 41 42 39 36 38 38 36 34 34 41 46 46 48 51 48 42 38 37 38 34 29 28 30
40 36 31 31 32 34 36 38 39 38 37 34 32 31 28 26 25 27 27 27 27 27 27 27 27 27 29 29 28 29 30 33 36 37 35 35 32 27 25 25 25 25 25 25 25 24 25 31 31 31 38 45 48 48 43 36 33 33 32 32 34 38 39 39 39 43 45 39 36 37 39 37 33 36 46 51 51 53 54 51 48 47 44 41 37 34 36 40
43 42 39 35 31 31 34 34 34 37 39 40 38 35 33 32 30 30 29 28 29 28 26 27 27 27 28 28 27 27 28 30 32 33 32 30 28 24 22 22 21 21 21 19 19 22 26 29 31 33 39 46 51 49 43 39 37 34 33 33 33 37 42 41 40 42 42 40 41 41 38 38 39 42 48 51 54 57 57 54 51 53 52 46 39 36 38 44
41 43 44 42 36 34 35 33 33 36 38 40 40 38 37 35 33 32 31 30 31 30 29 28 28 28 29 28 28 27 28 30 29 30 29 27 26 25 21 20 20 20 20 18 17 23 29 28 26 30 34 39 46 47 43 41 40 36 34 34 33 35 39 40 41 41 39 41 45 44 39 40 46 52 53 52 53 58 61 61 59 59 59 53 45 40 39 45
33 35 37 39 37 38 39 35 35 38 39 40 42 40 39 38 36 36 35 34 32 31 32 32 31 31 30 28 30 31 33 34 31 30 30 28 28 29 26 23 22 20 21 20 19 24 29 29 27 27 28 30 36 44 46 43 41 40 38 37 35 34 36 39 41 40 38 40 43 39 36 39 47 56 58 53 52 57 62 66 66 65 64 60 54 49 46 49
28 31 31 30 31 33 34 33 32 34 36 41 42 39 38 38 39 38 38 39 36 33 34 34 32 33 32 30 32 32 33 35 33 30 28 26 27 30 30 27 24 21 21 22 23 25 29 33 31 27 27 28 29 36 44 44 42 42 41 39 37 36 36 38 41 43 41 41 41 38 37 43 48 52 56 54 52 55 60 64 68 68 66 64 62 58 56 57
28 30 29 27 26 28 30 29 30 31 32 35 37 34 33 35 36 36 37 38 37 34 33 33 32 33 33 31 31 30 30 30 29 28 27 26 29 31 30 29 26 24 23 23 25 26 27 33 35 31 31 30 27 28 35 41 45 44 42 41 40 39 39 38 39 43 43 42 42 39 38 45 49 49 51 53 51 51 54 61 67 68 68 67 64 63 63 64
28 29 29 29 28 28 28 28 30 32 32 33 33 32 32 32 30 31 32 32 33 33 32 31 32 33 33 33 30 28 28 28 26 26 27 28 30 31 30 31 29 27 25 25 26 27 29 34 38 36 35 33 30 27 29 34 40 42 42 42 41 41 42 42 43 48 49 46 43 40 43 50 52 49 48 50 51 53 56 61 66 68 70 69 65 64 68 69
26 26 27 29 29 27 28 29 31 34 33 32 33 33 33 33 31 31 32 30 29 30 30 30 33 33 33 33 31 27 27 27 27 29 31 31 31 31 32 33 31 28 27 27 26 29 33 35 37 39 39 38 36 32 30 30 32 39 45 43 40 43 47 49 53 57 59 56 50 48 54 58 55 51 49 49 53 60 65 67 68 68 69 70 67 65 67 69